Flag for Germany Weather past 2 weeks in Wunstorf, Lower Saxony, Germany

Now
55 °F

Fog.


Feels Like: 55 °F
Forecast: 53 / 70 °F
Wind: 1 mph from North

Location: Wunstorf Airport

Current Time: Oct 2, 2014 at 8:27:31 AM

Latest Report: Oct 2, 2014 at 7:20 AM


Visibility: 3 mi

Pressure: 30.36 "Hg

Humidity: 94%

Dew point: 54 °F

Location of WunstorfLocation

Historic Weather in Wunstorf — Graph

°F

Wunstorf temperature yesterday

Maximum temperature yesterday: 68 °F (at 4:20 PM)
Minimum temperature yesterday: 50 °F (at 5:20 AM)
Average temperature yesterday: 58 °F

Past Weeks' High & Low Weather Summary

 TemperatureHumidityPressure
High77 °F (Sep 18, 3:20 PM)100% (Sep 18, 6:20 AM)30.39 "Hg (Sep 18, 6:20 AM)
Low43 °F (Sep 28, 5:20 AM)46% (Sep 21, 4:20 PM)29.80 "Hg (Sep 24, 4:20 PM)
Average60 °F82%30.08 "Hg
* Reported Sep 17 7:20 AM — Oct 2 7:20 AM, Wunstorf, Weather by CustomWeather, © 2014

Note: Actual official high and low records may vary slightly from our data, if they occured in-between our weather recording intervals... More about our weather records

Advertising

Wunstorf weather history for previous 24 hours

 ConditionsComfort  
Time TempWeatherWind HumidityBarometerVisibility
7:20 AM
Oct 2
55 °FFog.1 mph94%30.36 "Hg3 mi
6:20 AM55 °FCool.3 mph94%30.36 "Hg2 mi
5:20 AM55 °FCool.5 mph94%30.36 "Hg2 mi
4:20 AM57 °FCool.5 mph94%30.36 "Hg2 mi
3:20 AM54 °FCool.5 mph100%30.36 "Hg2 mi
2:20 AM55 °FCool.1 mph94%30.36 "Hg2 mi
1:20 AM55 °FCool.2 mph94%30.36 "Hg2 mi
12:20 AM55 °FCool.3 mph94%30.36 "Hg2 mi
11:20 PM
Oct 1
54 °FCool.5 mph100%30.33 "Hg2 mi
10:20 PM57 °FCool.2 mph94%30.33 "Hg2 mi
9:20 PM61 °FCool.5 mph83%30.33 "Hg3 mi
8:20 PM59 °FCool.3 mph88%30.33 "Hg3 mi
7:20 PM63 °FMild.5 mph83%30.30 "Hg3 mi
6:20 PM66 °FMild.2 mph73%30.30 "Hg4 mi
5:20 PM68 °FMild.3 mph69%30.30 "Hg4 mi
4:20 PM68 °FMild.7 mph69%30.27 "Hg4 mi
3:20 PM66 °FPartly sunny.5 mph73%30.30 "Hg4 mi
2:20 PM66 °FPartly sunny.5 mph73%30.30 "Hg4 mi
1:20 PM63 °FFog.3 mph83%30.33 "Hg3 mi
12:20 PM63 °FFog.5 mph88%30.33 "Hg3 mi
11:20 AM61 °FFog.2 mph88%30.33 "Hg2 mi
10:20 AM59 °FFog.5 mph88%30.30 "Hg2 mi
9:20 AM55 °FFog.2 mph100%30.30 "Hg2 mi
8:20 AM52 °FFog.3 mph100%30.30 "Hg2 mi
Weather by CustomWeather, © 2014

See weather overviewHow to use our weather pages